Location: Azat
(46.0765°N, 1.7600°E)
Time: 20:32:59
(UTC+00:00)

STARLINK-1240 - Pass Details

Date: 09 April 2020
Orbit: 549 x 551 km, 53.0° (Epoch: 26 May)

Event Time Altitude Azimuth Distance (km) Brightness Sun altitude
Rises 20:08:42 0° 300° (WNW) 2,730 9.0 -16.3°
Reaches altitude 10° 20:10:58 10° 304° (NW) 1,834 7.6 -16.6°
Maximum altitude 20:15:06 63° 26° (NNE) 622 3.8 -17.2°
Enters shadow 20:16:41 35° 94° (E) 907 4.2 -17.4°
